CT2IRK-11 Weather Reports


time (UTC)temp
C
wind
direction
speed
KPH
gust
KPH
rain 1hr
cm
rain 24hr
cm
rain mn
cm
humidity
%
barometer
mb
20260507015006 12 304 0.0 1.6 0.00 0.03 0.00 90 1003.8
20260507013005 13 56 1.6 9.7 0.00 0.03 0.00 88 1003.8
20260507012006 13 56 1.6 3.2 0.00 0.03 0.00 88 1003.9
20260507011005 13 66 0.0 1.6 0.00 0.03 0.00 88 1003.8
20260507005005 13 57 0.0 1.6 0.00 0.03 0.00 88 1004.2
20260507004005 13 35 0.0 0.0 0.00 0.03 0.00 88 1004.2
20260507003006 13 22 0.0 0.0 0.00 0.03 0.00 88 1004.2
20260507002005 13 56 0.0 0.0 0.00 0.03 0.00 87 1004.4
20260507001006 13 352 0.0 1.6 0.00 0.03 0.00 86 1004.4
20260507000005 13 28 0.0 9.7 0.00 0.03 0.00 85 1004.3
20260506235005 13 37 3.2 11.3 0.00 0.03 0.00 85 1004.3
20260506234005 13 31 6.4 12.9 0.00 0.03 0.00 84 1004.3
20260506233005 13 22 4.8 19.3 0.00 0.03 0.00 84 1004.3
20260506232005 13 22 11.3 14.5 0.00 0.03 0.00 84 1004.3
20260506231005 13 52 1.6 12.9 0.00 0.03 0.00 84 1004.4
20260506230005 13 44 3.2 11.3 0.00 0.03 0.00 84 1004.5
20260506225005 14 22 8.0 14.5 0.00 0.03 0.03 83 1004.5
20260506224006 14 354 8.0 14.5 0.00 0.03 0.03 82 1004.5
20260506223006 14 22 12.9 24.1 0.00 0.03 0.03 81 1004.6
20260506222005 14 60 11.3 16.1 0.00 0.03 0.03 81 1004.7
20260506221005 14 336 3.2 19.3 0.00 0.03 0.03 81 1004.7
20260506220005 14 2 8.0 16.1 0.00 0.03 0.03 80 1004.9
20260506215006 14 6 9.7 16.1 0.00 0.03 0.03 80 1004.8
20260506214006 14 30 11.3 16.1 0.00 0.03 0.03 79 1004.8
20260506212005 15 8 11.3 16.1 0.00 0.03 0.03 79 1004.7
20260506211006 15 21 8.0 14.5 0.00 0.03 0.03 78 1004.7
20260506210005 15 25 11.3 22.5 0.00 0.03 0.03 77 1004.6
20260506205005 15 351 9.7 14.5 0.03 0.03 0.03 76 1004.5
20260506203005 15 359 0.0 9.7 0.03 0.03 0.03 73 1004.5
20260506202005 15 81 9.7 12.9 0.03 0.03 0.03 72 1004.3
20260506201006 16 359 9.7 19.3 0.03 0.03 0.03 69 1004.3
20260506200005 16 6 16.1 22.5 0.03 0.03 0.03 66 1004.0
20260506195005 16 5 17.7 22.5 0.00 0.00 0.00 65 1004.1
20260506194006 16 335 14.5 20.9 0.00 0.00 0.00 66 1004.1
20260506193005 16 349 14.5 25.7 0.00 0.00 0.00 64 1004.1
20260506191005 17 28 14.5 19.3 0.00 0.00 0.00 59 1003.7
20260506190006 18 100 9.7 16.1 0.00 0.00 0.00 59 1003.5
20260506185005 18 45 9.7 14.5 0.00 0.00 0.00 56 1003.5
20260506183006 19 292 12.9 20.9 0.00 0.00 0.00 52 1003.5
20260506182005 19 303 17.7 24.1 0.00 0.00 0.00 50 1003.4
20260506180006 20 9 17.7 22.5 0.00 0.00 0.00 48 1003.6
20260506175005 20 298 16.1 25.7 0.00 0.00 0.00 46 1003.7
20260506174006 20 324 16.1 24.1 0.00 0.00 0.00 45 1003.7
20260506173005 21 352 16.1 22.5 0.00 0.00 0.00 46 1003.7
20260506172005 21 302 16.1 22.5 0.00 0.00 0.00 45 1003.8
20260506171005 21 10 14.5 22.5 0.00 0.00 0.00 44 1003.6
20260506170005 21 30 19.3 22.5 0.00 0.00 0.00 44 1003.6
20260506165005 22 315 14.5 25.7 0.00 0.00 0.00 43 1003.6
20260506164005 22 353 19.3 22.5 0.00 0.00 0.00 45 1003.6
20260506163005 22 14 11.3 24.1 0.00 0.00 0.00 43 1003.7
20260506162006 23 270 12.9 25.7 0.00 0.00 0.00 43 1003.8
20260506161008 22 327 16.1 25.7 0.00 0.00 0.00 44 1003.7
20260506160005 22 2 16.1 29.0 0.00 0.00 0.00 45 1003.7
20260506155005 23 28 16.1 25.7 0.00 0.00 0.00 43 1003.6
20260506153005 22 304 14.5 27.4 0.00 0.00 0.00 44 1003.8
20260506152005 23 302 12.9 20.9 0.00 0.00 0.00 41 1004.1
20260506151005 23 307 9.7 25.7 0.00 0.00 0.00 41 1004.1
20260506150005 23 13 14.5 19.3 0.00 0.00 0.00 42 1004.3
20260506145008 23 36 11.3 16.1 0.00 0.00 0.00 39 1004.3
20260506144005 23 294 17.7 22.5 0.00 0.00 0.00 40 1004.3
20260506143005 23 321 14.5 20.9 0.00 0.00 0.00 40 1004.5
20260506142006 22 300 11.3 25.7 0.00 0.00 0.00 41 1004.7
20260506141005 23 283 12.9 20.9 0.00 0.00 0.00 39 1004.9
20260506140005 22 321 12.9 19.3 0.00 0.00 0.00 40 1004.9
20260506135005 23 347 8.0 16.1 0.00 0.00 0.00 41 1005.0
20260506134005 25 338 8.0 11.3 0.00 0.00 0.00 33 1005.1
20260506132005 24 344 9.7 16.1 0.00 0.00 0.00 35 1005.5
20260506131005 23 357 14.5 22.5 0.00 0.00 0.00 37 1005.6
20260506130005 22 34 8.0 14.5 0.00 0.00 0.00 41 1005.6
20260506124005 23 304 11.3 16.1 0.00 0.00 0.00 37 1005.8
20260506123005 23 22 6.4 16.1 0.00 0.00 0.00 38 1006.0
20260506121005 21 41 11.3 20.9 0.00 0.00 0.00 44 1006.1
20260506114005 21 349 11.3 20.9 0.00 0.00 0.00 45 1006.6
20260506113004 22 357 8.0 16.1 0.00 0.00 0.00 42 1006.6
20260506112005 22 47 11.3 20.9 0.00 0.00 0.00 42 1006.6
20260506111005 22 356 11.3 16.1 0.00 0.00 0.00 42 1006.6
20260506110004 21 358 14.5 16.1 0.00 0.00 0.00 45 1006.7
20260506105004 22 34 9.7 24.1 0.00 0.00 0.00 46 1006.7
20260506104005 21 51 9.7 16.1 0.00 0.00 0.00 47 1006.7
20260506103004 21 55 9.7 14.5 0.00 0.00 0.00 48 1006.8
20260506102005 21 0 9.7 16.1 0.00 0.00 0.00 48 1007.0
20260506101004 21 1 9.7 19.3 0.00 0.00 0.00 50 1007.1
20260506095005 20 57 14.5 19.3 0.00 0.00 0.00 52 1007.0
20260506094005 20 22 11.3 14.5 0.00 0.00 0.00 54 1007.0
20260506093004 20 23 11.3 16.1 0.00 0.00 0.00 55 1007.2
20260506092005 20 35 6.4 9.7 0.00 0.00 0.00 60 1007.3
20260506091005 19 351 0.0 3.2 0.00 0.00 0.00 63 1007.3
20260506090004 20 32 0.0 8.0 0.00 0.00 0.00 61 1007.4
20260506085004 18 37 3.2 11.3 0.00 0.00 0.00 64 1007.6
20260506084005 18 356 0.0 9.7 0.00 0.00 0.00 66 1007.7
20260506083005 17 58 0.0 9.7 0.00 0.00 0.00 68 1007.6
20260506073005 16 9 0.0 0.0 0.00 0.00 0.00 71 1007.8
20260506072005 17 8 0.0 0.0 0.00 0.00 0.00 68 1007.7
20260506071005 17 298 0.0 0.0 0.00 0.00 0.00 69 1007.8
20260506062005 11 135 0.0 0.0 0.00 0.00 0.00 95 1007.5
20260506061005 10 139 0.0 0.0 0.00 0.00 0.00 99 1007.4
20260506045005 10 147 0.0 0.0 0.00 0.00 0.00 99 1007.4
20260506042006 10 242 0.0 0.0 0.00 0.00 0.00 99 1007.5
20260506041005 10 112 0.0 0.0 0.00 0.00 0.00 99 1007.6
20260506035005 10 135 0.0 0.0 0.00 0.00 0.00 99 1007.6
20260506034006 10 304 0.0 1.6 0.00 0.00 0.00 99 1007.6
20260506033006 10 270 0.0 0.0 0.00 0.00 0.00 98 1007.6
20260506032006 11 259 0.0 0.0 0.00 0.00 0.00 96 1007.7
20260506030005 11 80 0.0 1.6 0.00 0.00 0.00 97 1007.7
20260506024006 11 10 0.0 0.0 0.00 0.00 0.00 97 1007.9
20260506023005 11 44 1.6 3.2 0.00 0.00 0.00 97 1008.0
20260506022006 11 79 0.0 0.0 0.00 0.00 0.00 97 1007.8
20260506021005 11 19 0.0 0.0 0.00 0.00 0.00 97 1008.0
20260506020005 11 22 0.0 0.0 0.00 0.00 0.00 98 1008.2